Location: Arroyo de Valdeoliva
(40.1604°N, 4.9878°W)
Time: 11:57:53
(UTC+00:00)

Tiangong - Pass Details

Date: 21 February 2026
Orbit: 381 x 391 km, 41.5° (Epoch: 8 March)

Event Time Altitude Azimuth Distance (km) Brightness Sun altitude
Rises 19:04:02 0° 281° (W) 2,257 3.5 -12.4°
Reaches altitude 10° 19:06:14 10° 270° (W) 1,399 2.2 -12.9°
Maximum altitude 19:09:04 31° 206° (SSW) 696 -0.6 -13.4°
Enters shadow 19:11:29 13° 146° (SE) 1,243 0.1 -13.9°
